Regional Weather Roundup
Issued by NWS

Home | Current Version | Previous Version | Text Only | Print | Product List | Glossary On
Versions: 1 2 3 4 5 6 7 8 9 10 11 12 13 14 15 16 17 18 19 20 21 22 23 24 25 26 27 28 29 30 31 32 33 34 35 36 37 38 39 40 41 42 43 44 45 46 47 48 49 50
000
ASUS44 KOUN 281510
RWROK

WEATHER ROUNDUP FOR OKLAHOMA
NATIONAL WEATHER SERVICE NORMAN OK
1000 AM CDT WED SEP 28 2016

NOTE: "FAIR" INDICATES FEW OR NO CLOUDS BELOW 12,000 FEET WITH NO
      SIGNIFICANT WEATHER AND/OR OBSTRUCTIONS TO VISIBILITY.

OKZ001>007-009>012-014-015-017-281600-
NORTHWEST OKLAHOMA AND THE PANHANDLE

CITY           SKY/WX    TMP DP  RH WIND       PRES   REMARKS
GAGE           SUNNY     68  46  45 W3        30.13R
GUYMON         SUNNY     71  38  29 N10       30.17R
ENID/WOODRING  MOSUNNY   73  52  46 N17       30.03R
$$

OKZ016-021>023-033>039-044-045-281600-
SOUTHWEST OKLAHOMA

CITY           SKY/WX    TMP DP  RH WIND       PRES   REMARKS
LAWTON/REGL    SUNNY     69  55  60 W3        30.06R
LAWTON/FT SILL SUNNY     71  54  55 S2        30.05R
FREDERICK      SUNNY     71  51  49 NW9       30.05R HAZE
CLINTON        SUNNY     76  46  34 NW12      30.10R
HOBART         SUNNY     68  53  58 W10       30.08R
ALTUS AFB      SUNNY     68  49  50 NW5       30.08R
$$

OKZ018>020-024>031-281600-
CENTRAL OKLAHOMA

CITY           SKY/WX    TMP DP  RH WIND       PRES   REMARKS
OKLAHOMA CITY  MOSUNNY   72  52  49 NW8       30.04R
OKC/WILEY POST SUNNY     73  50  44 W10       30.05S
OKC/TINKER AFB SUNNY     72  49  44 NW12      30.03R
STILLWATER     SUNNY     72  51  47 NW8       30.02R
GUTHRIE        SUNNY     70  53  54 W8        30.04R
$$

OKZ008-013-054>072-281600-
NORTHEAST OKLAHOMA

CITY           SKY/WX    TMP DP  RH WIND       PRES   REMARKS
TULSA          SUNNY     74  53  48 NW10      29.98R
TULSA/JONES    SUNNY     73  52  47 CALM      29.99R
PONCA CITY     SUNNY     71  55  56 N12       30.02R
BARTLESVILLE   SUNNY     73  55  53 N10G16    30.01R
MUSKOGEE       SUNNY     72  52  49 W8        30.00R HAZE
$$

OKZ032-040>043-046>053-073>077-281600-
SOUTH CENTRAL/SOUTHEAST OKLAHOMA

CITY           SKY/WX    TMP DP  RH WIND       PRES   REMARKS
ARDMORE/DWNTWN SUNNY     70  52  52 W3        30.05S
MCALESTER      MOSUNNY   71  54  54 SW7       30.02S
$$




USA.gov is the U.S. government's official web portal to all federal, state and local government web resources and services.